Вернуться в каталог

FALCON 9 R/B

АктивенHEO
NORAD 58964·ROCKET BODY·🇺🇸 United States

Запущен Feb 15, 2024 с Cape Canaveral Space Force Station

Loading…

Ближайшие Пролёты (ближайшие 24 часа)

TLE

УстаревшееSource: Space-Track

Эпоха: Feb 15, 2024, 06:40 UTC

1 58964U 24030B   24046.27792824 -.00014702  00000-0  00000-0 0  9993
2 58964  28.5100  65.0800 9704700 239.9600   5.0000  0.08200507    02

Отслеживайте FALCON 9 R/B в реальном времени с AllMySat

Download on the App Store